Location: Ferintosh
(52.7647°N, 112.9692°W)
Time: 18:20:49
(UTC+00:00)

Explorer 7 - Pass Details

Date: 27 May 2024
Orbit: 466 x 622 km, 50.3° (Epoch: 15 June)

Event Time Altitude Azimuth Distance (km) Brightness Sun altitude
Rises 07:22:26 0° 264° (W) 2,548 10.2 -15.8°
Reaches altitude 10° 07:24:34 10° 261° (W) 1,687 9.2 -15.8°
Maximum altitude 07:28:21 61° 181° (S) 582 6.6 -15.8°
Drops below altitude 10° 07:32:18 10° 101° (E) 1,774 9.3 -15.8°
Sets 07:34:36 0° 98° (E) 2,694 10.3 -15.8°
